Погода в Денвере

США     39°44′23″N   104°59′08″W
темп.,
°C
ветер,
м/с
пор.,
м/с
влажн.,
%
обл.,
%
осадки,
мм/ч
давл.,
гПа
погр.,
м
16 октября, сб
сб1600:00+8з12270 0.0 1024112
03:00+8ююз12300 0.0 102445
06:00+7ююз11310 0.0 102523
09:00+10ю22260 0.0 1025166
12:00+16юв12160 0.0 1022494
15:00+20юв01120 0.0 10191397
18:00+19ю23150 0.0 1019184
21:00+14ю23190 0.0 1021111
17 октября, вс
вс1700:00+13юз12290 0.0 102041
03:00+11ююз12320 0.0 102043
06:00+10ю22330 0.0 101929
09:00+12ююз12270 0.0 1018132
12:00+18юв11170 0.0 1014402
15:00+22ссв12110 0.0 1009588
18:00+21зсз23130 0.0 100876
21:00+17зюз111735 0.0 100915
18 октября, пн
пн1800:00+15ююз112358 0.0 100925
03:00+13зюз1129100 0.0 100817
06:00+13ю1230100 0.0 100823
09:00+15ююз22273 0.0 1007128
12:00+20юв23160 0.0 1004909
15:00+23вюв45120 0.0 10003000
18:00+21вюв591589 0.0 999801
21:00+17зсз36210 0.0 1002338
19 октября, вт
вт1900:00+15ююз11230 0.0 100333
03:00+13юз232572 0.0 100395
06:00+12ссз37287 0.0 1006403
09:00+12зюз35280 0.0 1009534
12:00+16с15135 0.0 10083056
15:00+18з791284 0.0 10073578
18:00+14зсз7142710 0.0 10131974
21:00+12с57290 0.0 10161080
20 октября, ср
ср2000:00+9юв33470 0.0 1019491
03:00+8юв22450 0.0 1019283
06:00+8в11440 0.0 1020176
09:00+9ююв00390 0.0 1022370
12:00+14юв22255 0.0 1019601
15:00+17в121658 0.0 1016843
18:00+17с1216100 0.0 1016148
21:00+15ссз111997 0.0 101817